contact:dominique.lefevre@mio.osupytheas.fr, maurice.libes@osupytheas.fr
Project:EMSO Ligure-ouest http://www.emso-fr.org/EMSO-France
Sensor Aquadopp, line 13 Serial AQD14315 
DOI : "https://doi.org/10.17882/74513; https://doi.org/10.17882/83244" 
Title:EMSO Ligure Ouest : Data ligne ALBATROSS capteur AQUADOPP - deploiement 2021
Id,Date,Profondeur,Latitude,Longitude,X_East,Y_North,Z_Up,Amplitude_X,Amplitude_Y,Amplitude_Z,Batterie,SoundSpeed,Heading,Pitch,Roll,Pressure,Temperature,Speed,Direction
, , m, degrees North, degrees East, m.s-1, m.s-1,m.s-1, 1, 1, 1, Volt, m.s-1, degree, degree, degree, dbar, degree_C, m.s-1, degree
09,2022-08-11T23:30:00,2000.0,42.79,6.0312,-0.007,-0.02,-0.011,64.0,66.0,63.0,13.0,1504.7,221.5,-0.9,1.0,1992.555,13.28,0.021,199.3
09,2022-08-12T00:00:00,2000.0,42.79,6.0312,0.005,-0.017,0.015,68.0,62.0,65.0,13.0,1504.7,219.7,-0.9,1.0,1992.522,13.28,0.017,163.6
09,2022-08-12T00:30:00,2000.0,42.79,6.0312,0.003,-0.022,0.0,66.0,61.0,66.0,13.0,1504.7,215.6,-0.9,0.9,1992.472,13.28,0.022,172.2
09,2022-08-12T01:00:00,2000.0,42.79,6.0312,-0.005,-0.02,-0.012,68.0,64.0,67.0,13.0,1504.7,214.1,-0.8,0.8,1992.529,13.28,0.02,194.0
09,2022-08-12T02:00:00,2000.0,42.79,6.0312,0.005,-0.028,-0.003,67.0,63.0,67.0,13.0,1504.7,212.6,-0.8,1.0,1992.514,13.28,0.028,169.9
09,2022-08-12T02:30:00,2000.0,42.79,6.0312,0.009,-0.014,0.007,66.0,64.0,66.0,13.0,1504.7,212.2,-0.8,0.9,1992.509,13.28,0.016,147.3
09,2022-08-12T03:00:00,2000.0,42.79,6.0312,0.008,-0.015,-0.024,70.0,61.0,68.0,13.0,1504.7,211.0,-0.8,0.9,1992.481,13.28,0.017,151.9
09,2022-08-12T03:30:00,2000.0,42.79,6.0312,0.005,-0.021,-0.007,74.0,64.0,66.0,13.0,1504.7,212.1,-0.9,0.9,1992.447,13.28,0.021,166.6
09,2022-08-12T04:00:00,2000.0,42.79,6.0312,0.006,-0.026,0.006,71.0,65.0,65.0,13.0,1504.7,211.4,-0.9,0.9,1992.479,13.28,0.026,167.0
09,2022-08-12T04:30:00,2000.0,42.79,6.0312,-0.006,-0.017,0.025,64.0,64.0,66.0,13.0,1504.7,210.7,-0.9,0.9,1992.545,13.28,0.018,199.4
09,2022-08-12T05:00:00,2000.0,42.79,6.0312,0.004,0.002,-0.028,66.0,64.0,66.0,13.0,1504.7,211.6,-0.8,1.0,1992.554,13.28,0.004,63.4
09,2022-08-12T05:30:00,2000.0,42.79,6.0312,0.009,-0.002,-0.008,78.0,63.0,65.0,13.0,1504.7,212.2,-0.8,1.0,1992.538,13.28,0.009,102.5
09,2022-08-12T06:00:00,2000.0,42.79,6.0312,0.007,-0.004,0.023,66.0,65.0,68.0,13.0,1504.7,214.1,-0.9,1.0,1992.609,13.28,0.008,119.7
09,2022-08-12T06:30:00,2000.0,42.79,6.0312,0.002,-0.021,0.014,69.0,63.0,65.0,13.0,1504.7,215.5,-0.9,0.9,1992.602,13.28,0.021,174.6
09,2022-08-12T07:00:00,2000.0,42.79,6.0312,-0.001,-0.006,-0.007,69.0,61.0,70.0,13.0,1504.7,217.4,-0.9,1.0,1992.601,13.28,0.006,189.5
09,2022-08-12T07:30:00,2000.0,42.79,6.0312,0.01,-0.023,0.004,64.0,66.0,66.0,13.0,1504.7,218.2,-0.8,0.9,1992.633,13.28,0.025,156.5
09,2022-08-12T08:00:00,2000.0,42.79,6.0312,0.024,-0.012,-0.003,66.0,61.0,67.0,13.0,1504.7,220.0,-0.8,0.9,1992.61,13.28,0.026,116.6
09,2022-08-12T08:30:00,2000.0,42.79,6.0312,0.007,-0.005,-0.004,67.0,63.0,65.0,13.0,1504.7,222.4,-0.8,1.0,1992.61,13.28,0.008,125.5
09,2022-08-12T09:00:00,2000.0,42.79,6.0312,0.006,-0.025,-0.005,66.0,64.0,66.0,13.0,1504.7,224.8,-0.8,0.9,1992.569,13.28,0.025,166.5
09,2022-08-12T09:30:00,2000.0,42.79,6.0312,0.021,0.006,-0.011,67.0,64.0,71.0,13.0,1504.7,227.3,-0.8,0.9,1992.53,13.28,0.021,74.1
09,2022-08-12T10:00:00,2000.0,42.79,6.0312,0.002,-0.018,-0.023,66.0,64.0,65.0,13.0,1504.7,225.9,-0.8,1.0,1992.549,13.28,0.018,173.7
09,2022-08-12T10:30:00,2000.0,42.79,6.0312,-0.001,-0.006,-0.022,69.0,62.0,67.0,13.0,1504.7,226.9,-0.8,0.9,1992.485,13.28,0.006,189.5
09,2022-08-12T11:00:00,2000.0,42.79,6.0312,0.011,-0.013,-0.002,65.0,67.0,63.0,13.0,1504.7,226.2,-0.8,0.9,1992.482,13.28,0.017,139.8
09,2022-08-12T11:30:00,2000.0,42.79,6.0312,0.017,-0.023,0.0,65.0,64.0,66.0,13.0,1504.7,224.2,-0.8,0.9,1992.495,13.28,0.028,143.5
09,2022-08-12T12:00:00,2000.0,42.79,6.0312,0.002,-0.008,-0.003,65.0,63.0,72.0,13.0,1504.7,229.0,-0.8,0.9,1992.469,13.28,0.008,166.0
09,2022-08-12T12:30:00,2000.0,42.79,6.0312,0.009,-0.026,0.011,67.0,64.0,65.0,13.0,1504.7,224.6,-0.8,1.0,1992.398,13.28,0.027,160.9
09,2022-08-12T13:00:00,2000.0,42.79,6.0312,0.01,-0.001,-0.012,66.0,66.0,69.0,13.0,1504.7,223.7,-0.8,1.0,1992.417,13.28,0.01,95.7
09,2022-08-12T13:30:00,2000.0,42.79,6.0312,0.01,-0.029,0.026,65.0,64.0,64.0,13.0,1504.7,226.1,-0.7,1.0,1992.41,13.28,0.03,161.0
09,2022-08-12T14:00:00,2000.0,42.79,6.0312,-0.001,-0.013,-0.019,68.0,65.0,66.0,13.0,1504.7,223.4,-0.8,0.9,1992.415,13.28,0.013,184.4
09,2022-08-12T15:00:00,2000.0,42.79,6.0312,0.0,-0.025,-0.025,65.0,66.0,67.0,13.0,1504.7,224.5,-0.8,0.9,1992.395,13.28,0.025,180.0
09,2022-08-12T15:30:00,2000.0,42.79,6.0312,0.006,-0.018,0.012,66.0,64.0,67.0,13.0,1504.7,225.5,-0.8,1.0,1992.46,13.28,0.018,161.6
09,2022-08-12T16:00:00,2000.0,42.79,6.0312,-0.006,-0.012,-0.009,68.0,63.0,68.0,13.0,1504.7,226.6,-0.8,0.9,1992.481,13.28,0.013,206.6
09,2022-08-12T16:30:00,2000.0,42.79,6.0312,-0.003,-0.037,0.03,65.0,66.0,67.0,13.0,1504.7,228.6,-0.8,0.9,1992.512,13.28,0.037,184.6
09,2022-08-12T17:00:00,2000.0,42.79,6.0312,0.014,-0.012,-0.017,65.0,63.0,65.0,13.0,1504.7,225.2,-0.8,0.9,1992.555,13.28,0.018,130.6
09,2022-08-12T17:30:00,2000.0,42.79,6.0312,-0.012,-0.04,0.005,67.0,61.0,67.0,13.0,1504.7,221.4,-0.8,0.9,1992.604,13.28,0.041,196.7
09,2022-08-12T18:00:00,2000.0,42.79,6.0312,-0.004,-0.015,0.026,73.0,63.0,65.0,13.0,1504.7,218.9,-0.8,0.9,1992.688,13.28,0.015,194.9
09,2022-08-12T18:30:00,2000.0,42.79,6.0312,0.004,-0.014,-0.013,67.0,63.0,67.0,13.0,1504.7,217.9,-0.8,0.9,1992.676,13.28,0.014,164.1
09,2022-08-12T19:00:00,2000.0,42.79,6.0312,-0.002,-0.007,-0.008,65.0,64.0,66.0,13.0,1504.7,217.5,-0.9,0.9,1992.704,13.28,0.007,195.9
09,2022-08-12T19:30:00,2000.0,42.79,6.0312,-0.019,-0.004,-0.023,69.0,66.0,65.0,13.0,1504.7,218.4,-0.8,1.0,1992.703,13.28,0.019,258.1
09,2022-08-12T20:00:00,2000.0,42.79,6.0312,0.01,-0.012,0.004,72.0,63.0,69.0,13.0,1504.7,219.6,-0.8,1.0,1992.719,13.28,0.015,140.2
09,2022-08-12T20:30:00,2000.0,42.79,6.0312,0.003,-0.016,0.012,67.0,62.0,72.0,13.0,1504.7,220.7,-0.9,0.9,1992.726,13.28,0.016,169.4
09,2022-08-12T21:00:00,2000.0,42.79,6.0312,0.015,-0.003,-0.006,68.0,64.0,63.0,13.0,1504.7,220.8,-0.8,1.0,1992.721,13.28,0.015,101.3
09,2022-08-12T21:30:00,2000.0,42.79,6.0312,-0.003,-0.008,0.008,69.0,68.0,67.0,13.0,1504.7,221.4,-0.8,0.9,1992.699,13.28,0.008,200.6
09,2022-08-12T22:00:00,2000.0,42.79,6.0312,0.012,-0.016,-0.011,68.0,66.0,70.0,13.0,1504.7,222.9,-0.8,0.9,1992.686,13.28,0.02,143.1
09,2022-08-12T22:30:00,2000.0,42.79,6.0312,-0.009,-0.002,0.022,66.0,62.0,65.0,13.0,1504.7,223.4,-0.9,0.9,1992.639,13.28,0.009,257.5
09,2022-08-12T23:00:00,2000.0,42.79,6.0312,0.024,-0.011,0.006,65.0,62.0,68.0,13.0,1504.7,224.3,-0.8,0.9,1992.645,13.28,0.026,114.6
